Regional Weather Roundup
Issued by NWS Sioux Falls, SD

Home | Current Version | Previous Version | Graphics & Text | Print | Product List | Glossary On
Versions: 1 2 3 4 5 6 7 8 9 10 11 12 13 14 15 16 17 18 19 20 21 22 23 24 25 26 27 28 29 30 31 32 33 34 35 36 37 38 39 40 41 42 43 44 45 46 47 48 49 50
000
ASUS43 KFSD 270002
RWRFSD

WEATHER ROUNDUP FOR SE SOUTH DAKOTA/SW MINNESOTA/NW IOWA
NATIONAL WEATHER SERVICE SIOUX FALLS SD
700 PM CDT THU APR 26 2018

NOTE: "FAIR" INDICATES FEW OR NO CLOUDS BELOW 12,000 FEET WITH NO
SIGNIFICANT WEATHER AND OR OBSTRUCTIONS TO VISIBILITY.


SDZ038>040-050-052>070-270100-
SOUTHEAST SOUTH DAKOTA

CITY           SKY/WX    TMP DP  RH WIND       PRES   REMARKS
BROOKINGS      SUNNY     56  32  40 N18       30.03S
CHAMBERLAIN    SUNNY     64  29  27 NW10G16   30.07F
6HR MIN TEMP:  61; 6HR MAX TEMP:  65;

HURON          SUNNY     63  32  31 NW14      30.03F
6HR MIN TEMP:  59; 6HR MAX TEMP:  63;

MADISON        FAIR      55  32  41 N18       30.04F
MITCHELL       SUNNY     63  33  32 NW16      30.06F
6HR MIN TEMP:  60; 6HR MAX TEMP:  64;

SIOUX FALLS    SUNNY     58  29  33 N23G30    30.04R
6HR MIN TEMP:  58; 6HR MAX TEMP:  61;

WINNER         FAIR      64  27  24 N8        30.09F
YANKTON        SUNNY     60  30  32 N20       30.06S
$$

MNZ071-072-080-081-089-090-097-098-270100-
SOUTHWEST MINNESOTA

CITY           SKY/WX    TMP DP  RH WIND       PRES   REMARKS
FAIRMONT       SUNNY     54  33  45 NW26G33   29.96R
JACKSON        SUNNY     52  32  46 NW24G39   29.99S
LUVERNE        SUNNY     55  30  38 N14G22    30.03R
MARSHALL       SUNNY     55  36  48 N18       30.01S
6HR MIN TEMP:  54; 6HR MAX TEMP:  57;

MONTEVIDEO     SUNNY     55  34  44 N16G23    30.01S
PIPESTONE      SUNNY    N/A N/A N/A N14G21    30.03R
REDWOOD FALLS  SUNNY     55  27  34 NW17G31   29.98R
TRACY          SUNNY     55  38  52 N18G24    30.01R
WINDOM         SUNNY     54  28  37 NW24      29.99S
WORTHINGTON    SUNNY     54  36  50 NW17      30.02R
$$

IAZ001>003-012>014-020>022-031-032-NEZ013-014-SDZ071-270100-
NORTHWEST IOWA

CITY           SKY/WX    TMP DP  RH WIND       PRES   REMARKS
CHEROKEE       SUNNY     58  31  36 N13G26    30.01R
DENISON        SUNNY     61  28  29 N20G26    30.00R
ESTHERVILLE    SUNNY     53  35  50 N24G31    29.98R
LE MARS        SUNNY     61  27  27 NW16G26   30.02S
ORANGE CITY    SUNNY     61  34  36 NW21G26   30.02S
SHELDON        SUNNY     57  30  35 N24G31    30.00R
SIOUX CITY     SUNNY     60  26  27 N23G33    30.02R
6HR MIN TEMP:  60; 6HR MAX TEMP:  66;

SPENCER        SUNNY     57  34  41 N21G32    30.00R
6HR MIN TEMP:  57; 6HR MAX TEMP:  63;

STORM LAKE     SUNNY     57  30  35 N22G29    29.99R
$$

ABBREVIATIONS USED IN REMARKS
   TC - TEMPERATURE IN CELSIUS
  WCI - WIND CHILL INDEX
   HX - HEAT INDEX
  VSB - VISIBILITY





USA.gov is the U.S. government's official web portal to all federal, state and local government web resources and services.